GW2827 Weather Reports


time (UTC)temp
C
wind
direction
speed
KPH
gust
KPH
rain 1hr
cm
rain 24hr
cm
rain mn
cm
humidity
%
barometer
mb
20260507064554 3 128 1.6 6.4 0.18 0.64 0.64 80 1015.8
20260507063058 3 0 0.0 1.6 0.18 0.61 0.61 80 1015.7
20260507061559 3 0 0.0 4.8 0.13 0.53 0.53 79 1015.6
20260507060054 3 0 0.0 1.6 0.10 0.48 0.48 78 1015.3
20260507054556 3 0 0.0 0.0 0.10 0.46 0.46 78 1015.2
20260507053121 3 0 0.0 0.0 0.10 0.43 0.43 77 1015.1
20260507051601 3 0 0.0 0.0 0.10 0.41 0.41 77 1015.0
20260507050100 3 0 0.0 1.6 0.18 0.38 0.38 76 1015.0
20260507044557 3 0 0.0 4.8 0.23 0.36 0.36 76 1015.0
20260507043057 3 128 0.0 4.8 0.23 0.33 0.33 76 1015.0
20260507041558 3 128 4.8 9.7 0.20 0.30 0.30 75 1015.2
20260507034556 4 128 9.7 30.6 0.05 0.13 0.13 75 1014.9
20260507033103 5 128 0.0 3.2 0.08 0.10 0.10 74 1014.3
20260507031558 6 128 0.0 3.2 0.10 0.10 0.10 74 1014.1
20260507030057 6 128 0.0 6.4 0.10 0.10 0.10 74 1014.0
20260507024601 5 128 0.0 6.4 0.08 0.08 0.08 74 1014.1
20260507023056 6 128 3.2 8.0 0.03 0.03 0.03 74 1013.9
20260507021557 6 128 6.4 11.3 0.00 0.00 0.00 74 1013.7
20260507020100 7 0 0.0 1.6 0.00 0.00 0.00 74 1013.6
20260507014603 6 128 0.0 1.6 0.00 0.00 0.00 73 1013.5
20260507013056 6 0 0.0 3.2 0.00 0.00 0.00 73 1013.5
20260507011558 6 128 4.8 12.9 0.00 0.00 0.00 73 1013.7
20260507010103 6 128 8.0 17.7 0.00 0.00 0.00 73 1013.7
20260507004611 7 128 1.6 6.4 0.00 0.00 0.00 73 1013.6
20260507003059 7 128 1.6 9.7 0.00 0.00 0.00 72 1013.5
20260507001556 6 127 3.2 6.4 0.00 0.00 0.00 72 1013.5
20260507000056 7 127 1.6 6.4 0.00 0.00 0.00 72 1013.5
20260506234557 6 127 3.2 8.0 0.00 0.00 0.00 72 1013.3
20260506233058 7 127 1.6 6.4 0.00 0.00 0.00 72 1013.4
20260506231553 7 127 3.2 9.7 0.00 0.00 0.00 72 1013.1
20260506230104 7 127 3.2 12.9 0.00 0.00 0.00 72 1013.1
20260506224552 7 127 4.8 17.7 0.00 0.00 0.00 72 1013.0
20260506223058 6 127 6.4 20.9 0.00 0.00 0.00 72 1012.9
20260506221557 6 127 6.4 17.7 0.00 0.00 0.00 73 1012.7
20260506220057 6 127 4.8 24.1 0.00 0.00 0.00 73 1012.8
20260506214603 8 127 9.7 19.3 0.00 0.00 0.00 73 1012.7
20260506213055 8 127 6.4 9.7 0.00 0.00 0.00 74 1012.4
20260506211600 8 127 3.2 8.0 0.00 0.00 0.00 74 1012.3
20260506210058 8 127 1.6 4.8 0.00 0.00 0.00 74 1012.2
20260506204559 8 127 1.6 8.0 0.00 0.00 0.00 75 1012.0
20260506203053 9 127 1.6 4.8 0.00 0.00 0.00 75 1011.9
20260506201556 8 127 1.6 6.4 0.00 0.00 0.00 75 1011.6
20260506200104 8 127 1.6 3.2 0.00 0.00 0.00 76 1011.6
20260506194605 8 127 1.6 4.8 0.00 0.00 0.00 76 1011.5
20260506193059 7 127 1.6 6.4 0.00 0.00 0.00 76 1011.5
20260506191606 7 127 1.6 6.4 0.00 0.00 0.00 76 1011.6
20260506190054 7 127 3.2 6.4 0.00 0.00 0.00 76 1011.6
20260506184601 7 127 1.6 4.8 0.00 0.00 0.00 76 1011.6
20260506183106 6 127 3.2 4.8 0.00 0.00 0.00 76 1011.5
20260506181604 6 0 1.6 4.8 0.00 0.00 0.00 76 1011.4
20260506180116 6 0 0.0 1.6 0.00 0.00 0.00 76 1011.3
20260506174559 5 0 0.0 3.2 0.00 0.00 0.00 75 1011.2
20260506173135 5 127 0.0 1.6 0.00 0.00 0.00 75 1011.2
20260506171603 5 128 0.0 1.6 0.00 0.00 0.00 75 1011.1
20260506170100 5 127 0.0 1.6 0.00 0.00 0.00 74 1011.0
20260506164553 5 0 0.0 1.6 0.00 0.00 0.00 74 1010.9
20260506163106 4 0 0.0 1.6 0.00 0.00 0.00 74 1010.8
20260506161558 3 0 0.0 1.6 0.00 0.00 0.00 73 1010.7
20260506160100 3 0 0.0 1.6 0.00 0.00 0.00 73 1010.7
20260506154558 3 0 0.0 0.0 0.00 0.00 0.00 73 1010.6
20260506153057 2 0 0.0 1.6 0.00 0.00 0.00 72 1010.5
20260506151558 2 127 0.0 0.0 0.00 0.00 0.00 72 1010.4
20260506150059 2 0 0.0 0.0 0.00 0.00 0.00 72 1010.4
20260506144606 2 0 0.0 0.0 0.00 0.00 0.00 71 1010.3
20260506143056 3 0 0.0 1.6 0.00 0.00 0.00 71 1010.2
20260506141553 2 0 0.0 0.0 0.00 0.00 0.00 71 1010.1
20260506140055 3 0 0.0 0.0 0.00 0.00 0.00 70 1010.1
20260506134605 3 0 0.0 0.0 0.00 0.00 0.00 70 1010.1
20260506133101 3 0 0.0 0.0 0.00 0.00 0.00 70 1010.0
20260506131556 3 0 0.0 1.6 0.00 0.00 0.00 69 1009.9
20260506130054 3 0 0.0 1.6 0.00 0.00 0.00 69 1009.8
20260506124555 3 128 0.0 1.6 0.00 0.00 0.00 68 1009.7
20260506123057 3 128 1.6 3.2 0.00 0.00 0.00 68 1009.7
20260506121554 3 127 0.0 3.2 0.00 0.00 0.00 68 1009.6
20260506120111 3 0 1.6 4.8 0.00 0.00 0.00 67 1009.6
20260506114557 3 127 1.6 3.2 0.00 0.00 0.00 66 1009.5
20260506113100 3 127 1.6 1.6 0.00 0.00 0.00 66 1009.6
20260506111555 3 127 1.6 3.2 0.00 0.00 0.00 65 1009.6
20260506110057 3 0 0.0 4.8 0.00 0.00 0.00 65 1009.5
20260506104558 3 127 0.0 3.2 0.00 0.00 0.00 64 1009.4
20260506103055 3 0 0.0 1.6 0.00 0.00 0.00 63 1009.4
20260506101557 3 127 1.6 3.2 0.00 0.00 0.00 63 1009.4
20260506094613 4 127 4.8 14.5 0.00 0.00 0.00 63 1009.1
20260506093053 5 127 6.4 19.3 0.00 0.00 0.00 63 1009.1
20260506091556 5 127 8.0 20.9 0.00 0.00 0.00 63 1009.0
20260506090053 5 129 3.2 11.3 0.00 0.00 0.00 63 1009.0
20260506084558 6 129 1.6 6.4 0.00 0.00 0.00 63 1008.7
20260506083059 5 129 1.6 4.8 0.00 0.00 0.00 63 1008.6
20260506081553 6 0 0.0 4.8 0.00 0.00 0.00 63 1008.5
20260506080107 6 0 1.6 4.8 0.00 0.00 0.00 62 1008.4
20260506073107 5 129 6.4 17.7 0.00 0.00 0.00 62 1008.0
20260506071557 6 128 6.4 12.9 0.00 0.00 0.00 62 1008.0